Regional Weather Roundup
Issued by NWS

Home | Current Version | Previous Version | Text Only | Print | Product List | Glossary Off
Versions: 1 2 3 4 5 6 7 8 9 10 11 12 13 14 15 16 17 18 19 20 21 22 23 24 25 26 27 28 29 30 31 32 33 34 35 36 37 38 39 40 41 42 43 44 45 46 47 48 49 50

000
ASUS43 KMPX 311010
RWRMN
WEATHER ROUNDUP FOR MINNESOTA
NATIONAL WEATHER SERVICE TWIN CITIES/CHANHASSEN MN
500 AM CDT THU JUL 31 2014


NOTE: "FAIR" INDICATES FEW OR NO CLOUDS BELOW 12,000 FEET WITH NO
SIGNIFICANT WEATHER AND/OR OBSTRUCTIONS TO VISIBILITY. N/A MEANS
CURRENT SKY AND/OR WEATHER CONDITIONS ARE NOT AVAILABLE.

MNZ060>063-068>070-311100-
   Twin Cities Metro

CITY           SKY/WX    TMP DP  RH WIND       PRES   REMARKS
TWIN CITIES    CLEAR     64  59  83 SW3       30.03S
ST PAUL        CLEAR     61  59  93 CALM      30.03S
CRYSTAL        CLEAR     64  55  72 CALM      30.02S
BLAINE         CLEAR     63  57  82 CALM      30.03S
LAKEVILLE      CLEAR     57  55  94 W5        30.04S
EDEN PRAIRIE   CLEAR     59  57  93 SW3       30.03S
SOUTH ST PAUL  CLEAR     63  58  84 CALM      30.03S
LAKE ELMO      FAIR      55  55 100 CALM      30.04S
$$
MNZ001>005-007-008-013>017-022>024-027-028-311100-
   Northwest Minnesota

CITY           SKY/WX    TMP DP  RH WIND       PRES   REMARKS
BEMIDJI        CLEAR     57  54  87 W6        30.03S
HALLOCK        CLEAR     57  55  94 N3        30.02S
ROSEAU         CLEAR     61  55  82 W3        30.01S
WARROAD        CLEAR     55  52  88 CALM      30.01S FOG
THIEF RVR FALL CLEAR     57  54  88 CALM      30.03F
CROOKSTON      CLEAR     57  55  94 CALM      30.04S
FOSSTON        PTCLDY    52  52 100 CALM      30.05S
DETROIT LAKES    N/A     59  57  94 CALM      30.06S FOG
MOORHEAD       CLEAR     55  55 100 CALM      30.05S
PARK RAPIDS    CLEAR     55  53  93 CALM      30.04S
$$
MNZ006-009>011-018-025>026-311100-
   North Central Minnesota

CITY           SKY/WX    TMP DP  RH WIND       PRES   REMARKS
BAUDETTE       CLEAR     59  57  93 W3        30.01S
FLAG ISLAND    CLEAR     66  63  88 NW3       29.99S
INTL FALLS     CLEAR     48  47  96 CALM      29.99S FOG
WASKISH        CLEAR     63  59  88 CALM      30.01S
BIG FORK       CLEAR     54  52  94 SW1       30.01S
LONGVILLE      CLEAR     55  54  94 CALM      30.02S
GRAND RAPIDS   CLEAR     59  55  88 CALM      30.01S
CRANE LAKE     CLEAR     46  46 100 CALM      30.00S FOG
ORR            CLEAR     52  48  87 CALM      29.97S FOG
COOK           FOG       52  52 100 CALM      30.00S VSB 1/4
$$
MNZ012-019>021-037-311100-
   Northeast Minnesota

CITY           SKY/WX    TMP DP  RH WIND       PRES   REMARKS
DULUTH         PTCLDY    59  55  87 N6        29.99S
ELY            MOCLDY    48  46  93 CALM      29.99S FOG
HIBBING        FOG       51  49  92 CALM      30.00S VSB 1/2
EVELETH        FOG       52  52 100 CALM      30.00S VSB 1/2
DULUTH HARBOR  CLEAR     63  57  82 SW5       29.98S
TWO HARBORS    CLEAR     55  52  88 CALM      29.96S
SILVER BAY     CLEAR     46  46 100 CALM      29.96S FOG
GRAND MARAIS     N/A     60  50  69 NW8       29.93S
G MARAIS ARPRT CLEAR     52  46  82 CALM      29.98S
$$
MNZ029>031-032-039>041-046>048-054>057-064-311100-
   West Central Minnesota

CITY           SKY/WX    TMP DP  RH WIND       PRES   REMARKS
FERGUS FALLS   CLEAR     57  55  94 CALM      30.06S
WHEATON        PTCLDY    59  54  82 CALM      30.07S
MORRIS         PTCLDY    55  54  94 CALM      30.05S
ALEXANDRIA     PTCLDY    59  56  89 CALM      30.07S
ELBOW LAKE     FAIR      58  55  89 CALM      30.05S
WADENA         CLEAR     55  55 100 W5        30.05R
GLENWOOD       PTCLDY    57  55  94 W5        30.07S
APPLETON       CLEAR     55  54  94 CALM      30.05F
BENSON         PTCLDY    55  54  94 CALM      30.06S
ORTONVILLE     CLEAR     59  52  77 CALM      30.06S
MADISON        CLEAR     55  54  94 SW3       30.06S
WILLMAR        FAIR      57  54  88 CALM      30.07S
$$
MNZ033>034-036-042>043-049>051-058-059-311100-
   Central Minnesota

CITY           SKY/WX    TMP DP  RH WIND       PRES   REMARKS
ST CLOUD       CLEAR     56  53  90 CALM      30.04S
SAUK CENTRE    FAIR      54  53  96 CALM      30.06S
PAYNESVILLE    CLEAR     49  49 100 SW5       30.06S FOG
AITKIN         PTCLDY    63  55  77 CALM      30.00S
PINE RIVER     PTCLDY    57  54  88 CALM      30.06S
BRAINERD       MOCLDY    56  54  93 SW3       30.03F
STAPLES        CLEAR     55  54  94 CALM      30.04S
LONG PRAIRIE   FAIR      54  52  94 CALM      30.06S
LITTLE FALLS     N/A     52  50  93 CALM      30.04S FOG
LITCHFIELD       N/A     63  59  88 W3        30.06S
BUFFALO        CLEAR     60  56  86 CALM      30.05S
MAPLE LAKE     CLEAR     60  56  88 CALM      30.05S
$$
MNZ037-044-045-052-053-311100-
   East Central Minnesota

CITY           SKY/WX    TMP DP  RH WIND       PRES   REMARKS
PRINCETON      CLEAR     55  54  94 CALM      30.03S
MORA           CLEAR     57  52  82 CALM      30.03S
CAMBRIDGE      CLEAR     61  52  72 CALM      30.01S
RUSH CITY      CLOUDY    57  54  90 CALM      30.02S
MOOSE LAKE     PTCLDY    54  52  94 CALM      29.99S
HINCKLEY       FAIR      61  55  82 CALM      30.00F
CLOQUET        CLEAR     57  54  88 NW5       29.99S
MCGREGOR       CLEAR     55  54  94 CALM      30.02S
$$
MNZ071>073-080-081-089-090-097-098-311100-
   Southwest Minnesota

CITY           SKY/WX    TMP DP  RH WIND       PRES   REMARKS
MONTEVIDEO     CLEAR     57  54  88 W5        30.07S
GRANITE FALLS  CLEAR     54  51  92 W5        30.08S
CANBY          CLEAR     56  53  91 SW3       30.08R
MARSHALL       CLEAR     55  52  88 W5        30.06S
REDWOOD FALLS  CLEAR     57  55  93 N3        30.05F
OLIVIA         PTCLDY    57  54  88 W3        30.05F
PIPESTONE      CLEAR     57  52  82 CALM      30.10S
WINDOM         PTCLDY    57  54  88 CALM      30.09R
WORTHINGTON    CLEAR     55  52  88 W5        30.10S
JACKSON        MOCLDY    57  52  82 W5        30.09S
TRACY          CLEAR     59  54  84 SW7       30.08S
SLAYTON        PTCLDY    56  54  92 CALM      30.10S
$$
MNZ065>067-074>077-082>085-091>093-311100-
   South Central Minnesota

CITY           SKY/WX    TMP DP  RH WIND       PRES   REMARKS
MANKATO        CLEAR     59  52  77 W3        30.06S
NEW ULM        CLEAR     54  54 100 W3        30.06S
ST JAMES       CLEAR     57  54  88 SW5       30.08S
FAIRMONT       MOCLDY    57  50  77 CALM      30.08S
GLENCOE        CLEAR     59  54  82 CALM      30.05R
FARIBAULT      CLEAR     57  52  82 CALM      30.06R
OWATONNA       CLEAR     57  54  88 S3        30.06S
WASECA         PTCLDY    52  46  82 SW3       30.08S
ALBERT LEA     PTCLDY    59  55  88 CALM      30.07S
$$
MNZ078>079-086>088-094>096-311100-
   Southeast Minnesota

CITY           SKY/WX    TMP DP  RH WIND       PRES   REMARKS
ROCHESTER      CLEAR     58  54  86 W9        30.06S
RED WING       CLEAR     55  55 100 CALM      30.02S
STANTON        CLEAR     56  53  90 CALM      30.03S
DODGE CENTER   PTCLDY    55  54  94 W6        30.06S
WINONA         CLEAR     59  55  88 N3        30.02S
AUSTIN         CLEAR     55  54  94 CALM      30.06S
PRESTON        CLEAR     58  57  97 W8        30.06S
$$
ABBREVIATIONS USED IN REMARKS
   TC - TEMPERATURES IN CELSIUS
  WCI - WIND CHILL INDEX
   HX - HEAT INDEX
  VSB - VISIBILITY
$$



USA.gov is the U.S. government's official web portal to all federal, state and local government web resources and services.